sat.trackr.live / text

‹ back to catalog

STARLINK-1373

NORAD 45544 · 2020-025P

PAYLOAD ACTIVE UNKNOWN

§ Identity

Operator
Country
US
Launch date
2020-04-22
Launch site
AFETR
Launch vehicle
Mass (kg)
RCS (m²)

Purposes: comms

External: N2YO · Heavens-Above · Gunter

§ Orbital elements

Epoch: 2026-09-19T00:00:02.000160Z

Period
90.90 min
Inclination
53.0346°
Eccentricity
0.0005331
Mean motion
15.84206321 rev/d
Perigee alt
315.0 km
Apogee alt
322.1 km
Semi-major
6,696.7 km
B*
3.8647e-4
RAAN
214.5566°
Arg perigee
64.4607°
Mean anomaly
131.1744°
Rev number
601

§ Raw data

STARLINK-13731 45544U 20025P   26262.00002315  .00089452  00000+0  38647-3 0  99982 45544  53.0346 214.5566 0005331  64.4607 131.1744 15.84206321  6013

JSON: /api/v1/satellites/45544 · /tle

For live sub-satellite position, see the globe view (requires WebGL).

§ Visibility from observer

Set your observer location to see the next 7 days of passes ≥ 10°. The values pass through the URL so the page stays shareable.

No JS? Fill the form by hand. The geolocation button needs JavaScript.